7 * 24
多渠道服务支持
TIANQI-14(天启-14)是中国于2021年6月18日8时发射的低轨物联网卫星,隶属于我国首个低轨物联网星座天启星座。该卫星旨在推进天启星座组网建设,具备全球覆盖、低功耗、低成本特点,可为农林、海洋、应急、电力等多行业提供空天地海一体化的卫星物联网数据服务,支撑各领域数字化应用发展。
中国
(CN)
| 数据来源 | 国际轨道数据 |
| 星历时间: | 2026-03-13T09:16:37+0800 22小时前 查看轨道信息 |
| 半长轴: | 6906.9km |
| 偏心率: | 0.0004644 |
| 轨道倾角: | 35.000° |
| 近地点辐角 | 197.756° |
| 升交点赤经 | 313.864° |
| 平近点角 | 162.299° |
| 近地点: | 525.555km |
| 远地点: | 531.971km |
| 周期: | 95.210分钟 |
| 每日圈数: | 15.124398 |